When you browse on this site, cookies collect data to enhance your experience and personalize the content and advertising you see.
Visit our Privacy Policy to learn more. By continuing to use the site, you agree to this use of cookies and data.
  • In United Kingdom
  • List of Countries
  • For 7 days
  • Water Temperature
  • Satellite Maps
  • Weather Map
  • Weather Widgets
  • user-avatar
    Login

    Hourly Weather Ridderkerk

    Today, 18 June, Tuesday

    Time Temperature Precipitation Wind Pressure Humidity
    00:00 +18°C° 0 mm 1 mps 762 mmHg 77%
    01:00 +18°C° 0 mm 1 mps 762 mmHg 78%
    02:00 +18°C° 0 mm 1 mps 762 mmHg 80%
    03:00 +16°C° 0 mm 1 mps 761 mmHg 81%
    04:00 +18°C° 0 mm 1 mps 761 mmHg 79%
    05:00 +19°C° 0 mm 1 mps 761 mmHg 76%
    06:00 +20°C° 0 mm 1 mps 761 mmHg 74%
    07:00 +21°C° 0 mm 1 mps 761 mmHg 70%
    08:00 +23°C° 0 mm 1 mps 761 mmHg 66%
    09:00 +24°C° 0 mm 1 mps 761 mmHg 61%
    10:00 +25°C° 0.1 mm 1 mps 761 mmHg 59%
    11:00 +26°C° 0.1 mm 1 mps 760 mmHg 57%
    12:00 +27°C° 0.1 mm 1 mps 760 mmHg 54%
    13:00 +27°C° 0.2 mm 1 mps 760 mmHg 54%
    14:00 +27°C° 0.2 mm 1 mps 759 mmHg 53%
    15:00 +27°C° 0.2 mm 1 mps 759 mmHg 53%
    16:00 +26°C° 0.1 mm 2 mps 759 mmHg 59%
    17:00 +25°C° 0.1 mm 2 mps 759 mmHg 64%
    18:00 +24°C° 0.1 mm 3 mps 758 mmHg 70%
    19:00 +22°C° 0.2 mm 3 mps 758 mmHg 74%
    20:00 +20°C° 0.2 mm 3 mps 758 mmHg 78%
    21:00 +19°C° 0.2 mm 3 mps 758 mmHg 83%
    22:00 +19°C° 0.1 mm 3 mps 758 mmHg 85%
    23:00 +18°C° 0.1 mm 3 mps 758 mmHg 87%

    Tomorrow, 19 June, Wednesday

    Time Temperature Precipitation Wind Pressure Humidity
    00:00 +18°C° 0.1 mm 3 mps 757 mmHg 90%
    01:00 +18°C° 0 mm 2 mps 757 mmHg 89%
    02:00 +18°C° 0 mm 2 mps 756 mmHg 89%
    03:00 +18°C° 0 mm 2 mps 755 mmHg 89%
    04:00 +19°C° 0 mm 3 mps 755 mmHg 87%
    05:00 +20°C° 0 mm 3 mps 755 mmHg 84%
    06:00 +21°C° 0 mm 4 mps 755 mmHg 82%
    07:00 +20°C° 0.3 mm 4 mps 754 mmHg 83%
    08:00 +20°C° 0.3 mm 4 mps 754 mmHg 83%
    09:00 +20°C° 0.3 mm 4 mps 754 mmHg 84%
    10:00 +22°C° 0.1 mm 4 mps 754 mmHg 79%
    11:00 +23°C° 0.1 mm 5 mps 754 mmHg 73%
    12:00 +25°C° 0.1 mm 5 mps 754 mmHg 67%
    13:00 +24°C° 0.9 mm 6 mps 754 mmHg 70%
    14:00 +23°C° 0.9 mm 7 mps 754 mmHg 72%
    15:00 +23°C° 0.9 mm 8 mps 755 mmHg 74%
    16:00 +22°C° 0.1 mm 7 mps 755 mmHg 76%
    17:00 +21°C° 0.1 mm 6 mps 755 mmHg 79%
    18:00 +19°C° 0.1 mm 5 mps 755 mmHg 81%
    19:00 +19°C° 0 mm 4 mps 756 mmHg 84%
    20:00 +18°C° 0 mm 4 mps 756 mmHg 86%
    21:00 +17°C° 0 mm 3 mps 757 mmHg 89%
    22:00 +16°C° 0 mm 3 mps 757 mmHg 90%
    23:00 +16°C° 0 mm 2 mps 757 mmHg 91%

    Day after tomorrow, 20 June, Thursday

    Time Temperature Precipitation Wind Pressure Humidity
    00:00 +15°C° 0 mm 2 mps 757 mmHg 92%
    01:00 +15°C° 0 mm 2 mps 757 mmHg 92%
    02:00 +15°C° 0 mm 2 mps 757 mmHg 92%
    03:00 +15°C° 0 mm 2 mps 757 mmHg 93%
    04:00 +15°C° 0 mm 2 mps 757 mmHg 91%
    05:00 +16°C° 0 mm 2 mps 757 mmHg 89%
    06:00 +16°C° 0 mm 2 mps 757 mmHg 87%
    07:00 +16°C° 0.9 mm 3 mps 758 mmHg 88%
    08:00 +17°C° 0.9 mm 3 mps 758 mmHg 88%
    09:00 +17°C° 0.9 mm 3 mps 758 mmHg 89%
    10:00 +17°C° 1 mm 3 mps 758 mmHg 88%
    11:00 +17°C° 1 mm 3 mps 758 mmHg 87%
    12:00 +17°C° 1 mm 4 mps 759 mmHg 86%
    13:00 +18°C° 0.1 mm 4 mps 759 mmHg 77%
    14:00 +19°C° 0.1 mm 4 mps 759 mmHg 69%
    15:00 +19°C° 0.1 mm 5 mps 759 mmHg 61%
    16:00 +19°C° 0 mm 4 mps 759 mmHg 63%
    17:00 +18°C° 0 mm 4 mps 760 mmHg 64%
    18:00 +18°C° 0 mm 3 mps 760 mmHg 66%
    19:00 +16°C° 0 mm 3 mps 760 mmHg 72%
    20:00 +14°C° 0 mm 3 mps 761 mmHg 78%
    21:00 +14°C° 0 mm 2 mps 761 mmHg 84%
    22:00 +14°C° 0 mm 2 mps 761 mmHg 86%
    23:00 +12°C° 0 mm 3 mps 761 mmHg 88%

    21 June, Friday

    Time Temperature Precipitation Wind Pressure Humidity
    00:00 +12°C° 0 mm 3 mps 761 mmHg 90%
    01:00 +12°C° 0 mm 3 mps 761 mmHg 90%
    02:00 +13°C° 0 mm 2 mps 761 mmHg 91%
    03:00 +13°C° 0 mm 2 mps 762 mmHg 91%
    04:00 +13°C° 0 mm 2 mps 762 mmHg 89%
    05:00 +14°C° 0 mm 2 mps 762 mmHg 86%
    06:00 +14°C° 0 mm 3 mps 762 mmHg 83%
    07:00 +16°C° 0.1 mm 3 mps 762 mmHg 78%
    08:00 +18°C° 0.1 mm 3 mps 763 mmHg 72%
    09:00 +19°C° 0.1 mm 4 mps 763 mmHg 67%
    10:00 +19°C° 0.1 mm 4 mps 763 mmHg 65%
    11:00 +19°C° 0.1 mm 5 mps 763 mmHg 62%
    12:00 +19°C° 0.1 mm 5 mps 763 mmHg 60%
    13:00 +19°C° 0 mm 5 mps 763 mmHg 59%
    14:00 +19°C° 0 mm 5 mps 763 mmHg 58%
    15:00 +19°C° 0 mm 5 mps 763 mmHg 57%
    16:00 +18°C° 0 mm 4 mps 763 mmHg 60%
    17:00 +17°C° 0 mm 4 mps 763 mmHg 63%
    18:00 +17°C° 0 mm 3 mps 764 mmHg 65%
    19:00 +16°C° 0 mm 2 mps 764 mmHg 69%
    20:00 +14°C° 0 mm 2 mps 764 mmHg 72%
    21:00 +13°C° 0 mm 1 mps 765 mmHg 76%
    22:00 +13°C° 0 mm 1 mps 765 mmHg 79%
    23:00 +13°C° 0 mm 1 mps 765 mmHg 82%

    22 June, Saturday

    Time Temperature Precipitation Wind Pressure Humidity
    00:00 +12°C° 0 mm 1 mps 765 mmHg 84%
    01:00 +12°C° 0 mm 1 mps 765 mmHg 86%
    02:00 +12°C° 0 mm 1 mps 765 mmHg 87%
    03:00 +12°C° 0 mm 1 mps 765 mmHg 89%
    04:00 +13°C° 0 mm 1 mps 765 mmHg 87%
    05:00 +14°C° 0 mm 1 mps 765 mmHg 85%
    06:00 +15°C° 0 mm 1 mps 765 mmHg 83%
    07:00 +16°C° 0 mm 1 mps 765 mmHg 77%
    08:00 +18°C° 0 mm 1 mps 765 mmHg 72%
    09:00 +20°C° 0 mm 1 mps 765 mmHg 66%
    10:00 +20°C° 0.2 mm 1 mps 765 mmHg 64%
    11:00 +21°C° 0.2 mm 1 mps 765 mmHg 63%
    12:00 +21°C° 0.2 mm 1 mps 765 mmHg 61%
    13:00 +21°C° 0.1 mm 1 mps 765 mmHg 62%
    14:00 +20°C° 0.1 mm 2 mps 765 mmHg 64%
    15:00 +20°C° 0.1 mm 2 mps 765 mmHg 66%
    16:00 +19°C° 0 mm 2 mps 765 mmHg 67%
    17:00 +19°C° 0 mm 2 mps 765 mmHg 68%
    18:00 +19°C° 0 mm 3 mps 765 mmHg 69%
    19:00 +18°C° 0 mm 3 mps 765 mmHg 71%
    20:00 +16°C° 0 mm 3 mps 765 mmHg 73%
    21:00 +14°C° 0 mm 3 mps 765 mmHg 75%
    22:00 +14°C° 0 mm 3 mps 765 mmHg 79%
    23:00 +14°C° 0 mm 2 mps 765 mmHg 83%

    23 June, Sunday

    Time Temperature Precipitation Wind Pressure Humidity
    00:00 +14°C° 0 mm 2 mps 765 mmHg 87%
    01:00 +14°C° 0 mm 2 mps 765 mmHg 87%
    02:00 +12°C° 0 mm 3 mps 765 mmHg 88%
    03:00 +12°C° 0 mm 3 mps 764 mmHg 88%
    04:00 +13°C° 0 mm 3 mps 765 mmHg 85%
    05:00 +14°C° 0 mm 3 mps 765 mmHg 81%
    06:00 +16°C° 0 mm 3 mps 765 mmHg 78%
    07:00 +17°C° 0 mm 3 mps 765 mmHg 73%
    08:00 +19°C° 0 mm 3 mps 764 mmHg 68%
    09:00 +20°C° 0 mm 3 mps 764 mmHg 63%
    10:00 +21°C° 0 mm 3 mps 764 mmHg 62%
    11:00 +22°C° 0 mm 3 mps 764 mmHg 61%
    12:00 +24°C° 0 mm 3 mps 764 mmHg 60%
    13:00 +25°C° 0.1 mm 3 mps 764 mmHg 61%
    14:00 +25°C° 0.1 mm 3 mps 763 mmHg 62%
    15:00 +25°C° 0.1 mm 3 mps 763 mmHg 63%
    16:00 +24°C° 0.1 mm 3 mps 763 mmHg 68%
    17:00 +24°C° 0.1 mm 3 mps 763 mmHg 72%
    18:00 +22°C° 0.1 mm 3 mps 763 mmHg 77%
    19:00 +21°C° 0 mm 3 mps 763 mmHg 79%
    20:00 +21°C° 0 mm 3 mps 763 mmHg 81%
    21:00 +20°C° 0 mm 3 mps 763 mmHg 83%
    22:00 +19°C° 0 mm 3 mps 763 mmHg 84%
    23:00 +19°C° 0 mm 3 mps 763 mmHg 85%
    Show more